[[{"header":{"parameterUnit":"m.s-1","parameterCategory":1,"la1":30.2991,"la2":30.254,"lo1":-89.0895,"lo2":-89.0444,"dy":0.0017,"dx":0.0017,"nx":28,"ny":28,"refTime":"2023-09-02T09:00:00:Z","depth":0,"parameterNumber":2,"parameterNumberName":"U-component_of_WINDS"},"data":[0,0,0,0,0,0,0,0,0,0,0,0,0,0,0,0,0,0,0,0,0,0,0,0,0,0,0,0,0,0,0,0,0,0,0,0,0,0,0,0,0,0,0,0,0,0,0,0,0,0,0,0,0,0,0,0,0,0,0.8527,0.8528,0,0.8618,0.8619,0.862,0.8615,0.8613,0.8612,0.8611,0.871,0.8714,0.8718,0,0,0,0,0,0,0,0,0,0,0,0,0,0.8357,0.836,0.8527,0.8528,0.8529,0.8618,0.8619,0.862,0.8615,0.8613,0.8612,0.861,0.8709,0.8714,0.8718,0,0,0,0,0,0,0,0,0,0,0,0,0,0.8438,0.8361,0.8527,0.8537,0.8539,0.8617,0.8619,0.8621,0.8615,0.8613,0.8611,0.8609,0.8707,0.8713,0.8719,0.8795,0,0,0.8737,0.8739,0,0,0,0,0,0,0,0,0.8433,0.8444,0.8535,0.8537,0.8539,0.8603,0.8595,0.8679,0.8616,0.8587,0.8611,0.8609,0.8677,0.8685,0.8706,0.88,0.8804,0.8737,0.8741,0.8743,0.8745,0,0,0,0,0,0,0,0.8427,0.844,0.8563,0.8536,0.8539,0.854,0.8549,0.8611,0.8642,0.8589,0.8589,0.8599,0.8677,0.8701,0.8709,0.8805,0.8737,0.8742,0.8746,0.8748,0.897,0.8972,0,0,0,0,0,0,0.8419,0.8435,0.856,0.8566,0.848,0.8545,0.8555,0.8584,0.8641,0.8648,0.8601,0.8599,0.8692,0.8702,0.8712,0.8807,0.8743,0.8749,0.8752,0.8967,0.897,0.8973,0,0,0,0,0,0,0.8415,0.843,0.8557,0.8501,0.8517,0.855,0.8583,0.8587,0.8611,0.865,0.8656,0.8619,0.8691,0.8704,0.8775,0.8811,0.8751,0.8757,0.8964,0.8968,0.8971,0.8997,0,0,0,0,0,0,0.841,0.8428,0.8456,0.8501,0.852,0.8615,0.8585,0.859,0.862,0.8618,0.8668,0.8675,0.869,0.8766,0.8781,0.8818,0.8761,0.8961,0.8966,0.897,0.8993,0.9001,0.9008,0,0,0,0,0,0.8404,0.846,0.8457,0.8472,0.8554,0.8617,0.8628,0.8643,0.8623,0.8652,0.8678,0.8673,0.8804,0.8773,0.879,0.8829,0.8959,0.8965,0.897,0.899,0.8999,0.9007,0,0,0,0,0,0,0.8419,0.8466,0.8463,0.8535,0.8572,0.8616,0.8653,0.8652,0.8697,0.8693,0.8711,0.8723,0.8795,0.8819,0.8784,0.8908,0.888,0.8888,0.8889,0.8899,0.8906,0.8899,0.8766,0,0,0,0,0,0.843,0.8475,0.8515,0.8574,0.8593,0.862,0.8648,0.8656,0.8696,0.8712,0.8743,0.8784,0.8835,0.8868,0.8916,0.8996,0.9009,0.9032,0.9039,0.9045,0.9053,0.9101,0.9112,0.899,0.899,0.899,0,0,0.8455,0.8486,0.8514,0.8578,0.8608,0.8657,0.8633,0.8685,0.8723,0.8721,0.8789,0.8814,0.8861,0.8938,0.8973,0.896,0.9089,0.9052,0.9056,0.9061,0.9107,0.9119,0.9129,0.8994,0.8993,0.8993,0,0,0.8525,0.8552,0.8605,0.8636,0.8681,0.8699,0.8712,0.8757,0.8772,0.8841,0.8842,0.8888,0.8974,0.9008,0.9037,0.9123,0.9122,0.9139,0.9178,0.9224,0.9233,0.9242,0.9276,0.9287,0.9146,0.9146,0.9146,0,0.855,0.8622,0.8634,0.8687,0.8717,0.8716,0.8773,0.8802,0.8862,0.8884,0.8868,0.8978,0.9009,0.9095,0.9116,0.9139,0.9157,0.9133,0.923,0.9239,0.9248,0.928,0.9292,0.9148,0.9148,0.9148,0.9148,0,0.8652,0.8702,0.8741,0.8797,0.8831,0.8886,0.8909,0.8943,0.8949,0.8969,0.9042,0.908,0.9137,0.9158,0.9165,0.9247,0.9238,0.9226,0.9198,0.9261,0.9292,0.9304,0.9151,0.915,0.915,0.9149,0,0,0.8734,0.8797,0.8811,0.8838,0.8888,0.8928,0.8985,0.9039,0.907,0.9111,0.9161,0.9235,0.9225,0.9258,0.9269,0.9309,0.9379,0.9293,0.9295,0.931,0.9475,0.9485,0.9499,0.9378,0.938,0.9382,0.9472,0,0.8811,0.8908,0.8922,0.9009,0.9057,0.9058,0.9108,0.9146,0.9167,0.9214,0.9238,0.9291,0.9273,0.9293,0.9333,0.9362,0.9413,0.9355,0.9428,0.943,0.9417,0.9515,0.9525,0.9608,0.9484,0.9486,0.9488,0,0.8913,0.8956,0.9048,0.9094,0.9115,0.9159,0.9212,0.9255,0.93,0.9313,0.9351,0.9357,0.942,0.9388,0.9476,0.9437,0.9468,0.9487,0.949,0.9499,0.9464,0.9528,0.9634,0.9648,0.9506,0.9505,0.9503,0,0.8966,0.9048,0.9114,0.9137,0.9192,0.9223,0.9248,0.929,0.9324,0.9371,0.9393,0.9448,0.9478,0.9522,0.9544,0.9519,0.9632,0.9602,0.9647,0.9647,0.9672,0.9671,0.9787,0.9688,0.9688,0.9688,0.9688,0,0.9052,0.9108,0.9139,0.918,0.9245,0.9262,0.9326,0.9351,0.9389,0.9437,0.9442,0.9487,0.9513,0.9564,0.9582,0.9654,0.9667,0.9682,0.9686,0.9683,0.9681,0.9704,0.97,0.9691,0.9691,0.969,0.9689,0,0.9122,0.9145,0.9217,0.9264,0.9277,0.9323,0.9364,0.9406,0.9427,0.9489,0.9504,0.9539,0.9599,0.9625,0.9699,0.9712,0.9795,0.9794,0.9779,0.9781,0.9827,0.9823,0.9963,0.9984,0.987,0.9871,0.9872,0,0.9176,0.922,0.9271,0.9303,0.9328,0.9379,0.9413,0.9433,0.9468,0.9524,0.956,0.9619,0.9668,0.9765,0.9799,0.9856,0.9859,0.9904,0.9868,0.9863,0.9863,0.9861,0.9867,0.9911,0.9912,0.9913,0.9914,0,0.9271,0.928,0.9327,0.9379,0.9419,0.9462,0.9503,0.953,0.9556,0.9597,0.9657,0.9695,0.9771,0.9832,0.9892,0.9921,0.9924,0.9925,0.9939,0.9937,0.9927,0.9936,0.98,0.9922,0.9921,0.9921,0.992,0.992,0.9336,0.9376,0.9419,0.9473,0.9506,0.9546,0.9588,0.9614,0.9665,0.9727,0.9736,0.9801,0.9849,0.993,0.9961,1.0015,1.0004,1.0024,1.003,1.0035,1.0039,0.9917,1.0026,1.0026,1.0026,1.0025,1.0025,0,0.9433,0.9461,0.951,0.9568,0.9611,0.9607,0.9654,0.9691,0.9748,0.9791,0.9839,0.9911,0.997,1.0009,1.007,1.0106,1.0109,1.0122,1.012,1.0128,1.0044,1.0026,1.0118,1.0118,1.0118,1.0118,1.0118,1.0118,0.9489,0.9557,0.9572,0.9658,0.9687,0.9749,0.9777,0.9815,0.9849,0.9928,0.9977,1.0001,1.0044,1.0108,1.0164,1.0174,1.0198,1.0212,1.0222,1.0143,1.0133,1.0124,1.0108,1.0216,1.0216,1.0302,1.0303,1.0304]},{"header":{"parameterUnit":"m.s-1","parameterCategory":1,"la1":30.2991,"la2":30.254,"lo1":-89.0895,"lo2":-89.0444,"dy":0.0017,"dx":0.0017,"nx":28,"ny":28,"refTime":"2023-09-02T09:00:00:Z","depth":0,"parameterNumber":3,"parameterNumberName":"V-component_of_WINDS"},"data":[0,0,0,0,0,0,0,0,0,0,0,0,0,0,0,0,0,0,0,0,0,0,0,0,0,0,0,0,0,0,0,0,0,0,0,0,0,0,0,0,0,0,0,0,0,0,0,0,0,0,0,0,0,0,0,0,0,0,-1.8795,-1.8795,0,-1.8774,-1.8774,-1.8774,-1.8762,-1.8762,-1.8762,-1.8762,-1.8738,-1.8738,-1.8737,0,0,0,0,0,0,0,0,0,0,0,0,0,-1.8822,-1.8822,-1.8795,-1.8795,-1.8795,-1.8774,-1.8774,-1.8774,-1.8762,-1.8762,-1.8762,-1.8762,-1.8738,-1.8738,-1.8737,0,0,0,0,0,0,0,0,0,0,0,0,0,-1.8807,-1.8822,-1.8795,-1.8786,-1.8786,-1.8774,-1.8774,-1.8773,-1.8762,-1.8762,-1.8762,-1.8762,-1.8739,-1.8738,-1.8737,-1.8732,0,0,-1.8734,-1.8734,0,0,0,0,0,0,0,0,-1.8808,-1.8806,-1.8788,-1.8787,-1.8786,-1.8771,-1.8775,-1.8759,-1.8762,-1.8771,-1.8762,-1.8762,-1.8749,-1.8747,-1.8743,-1.8731,-1.873,-1.8734,-1.8733,-1.8733,-1.8733,0,0,0,0,0,0,0,-1.8809,-1.8807,-1.8787,-1.8788,-1.8786,-1.8783,-1.8781,-1.8772,-1.876,-1.877,-1.8769,-1.8767,-1.8748,-1.8744,-1.8743,-1.8729,-1.8734,-1.8733,-1.8733,-1.8732,-1.871,-1.871,0,0,0,0,0,0,-1.8812,-1.8808,-1.8787,-1.8786,-1.8797,-1.8782,-1.878,-1.8776,-1.876,-1.8758,-1.8767,-1.8767,-1.8746,-1.8744,-1.8742,-1.8734,-1.8733,-1.8732,-1.8732,-1.871,-1.871,-1.871,0,0,0,0,0,0,-1.8812,-1.881,-1.8788,-1.8797,-1.8794,-1.8782,-1.8777,-1.8775,-1.8771,-1.8758,-1.8756,-1.8765,-1.8746,-1.8743,-1.8734,-1.8733,-1.8732,-1.8731,-1.871,-1.871,-1.871,-1.8719,0,0,0,0,0,0,-1.8813,-1.881,-1.8809,-1.8797,-1.8793,-1.8782,-1.8777,-1.8775,-1.877,-1.8769,-1.8756,-1.8753,-1.8745,-1.8736,-1.8733,-1.8732,-1.873,-1.871,-1.871,-1.871,-1.8719,-1.8719,-1.872,0,0,0,0,0,-1.8814,-1.8812,-1.8809,-1.8807,-1.8791,-1.8782,-1.878,-1.8772,-1.877,-1.8768,-1.8759,-1.8754,-1.8734,-1.8735,-1.8732,-1.873,-1.871,-1.871,-1.871,-1.8719,-1.8719,-1.872,0,0,0,0,0,0,-1.8824,-1.881,-1.8807,-1.8801,-1.8793,-1.878,-1.8778,-1.8773,-1.8764,-1.8764,-1.8753,-1.875,-1.8742,-1.8735,-1.8737,-1.8724,-1.8721,-1.8721,-1.8729,-1.8729,-1.873,-1.8731,-1.8729,0,0,0,0,0,-1.8825,-1.882,-1.8808,-1.8804,-1.88,-1.8789,-1.8785,-1.8779,-1.877,-1.8766,-1.8757,-1.8748,-1.8739,-1.8734,-1.8725,-1.8718,-1.8714,-1.8715,-1.8716,-1.8716,-1.8715,-1.871,-1.871,-1.871,-1.871,-1.871,0,0,-1.8828,-1.882,-1.8817,-1.8805,-1.8798,-1.8792,-1.8787,-1.878,-1.8775,-1.8765,-1.8756,-1.8749,-1.8738,-1.873,-1.8725,-1.8724,-1.8715,-1.8716,-1.8716,-1.8716,-1.871,-1.871,-1.871,-1.871,-1.871,-1.871,0,0,-1.883,-1.8824,-1.8819,-1.8812,-1.8802,-1.8795,-1.8794,-1.8782,-1.8777,-1.8769,-1.8761,-1.8754,-1.874,-1.8732,-1.8726,-1.8724,-1.8718,-1.8721,-1.8724,-1.8719,-1.8719,-1.8719,-1.8717,-1.8717,-1.8721,-1.8721,-1.8721,0,-1.8834,-1.8825,-1.8817,-1.8811,-1.8806,-1.8797,-1.8792,-1.8786,-1.8773,-1.8769,-1.8767,-1.8749,-1.8741,-1.873,-1.8729,-1.8725,-1.8723,-1.8723,-1.872,-1.8719,-1.8719,-1.8718,-1.8717,-1.8721,-1.8721,-1.8721,-1.8721,0,-1.8831,-1.8825,-1.8822,-1.8811,-1.8805,-1.88,-1.879,-1.8785,-1.8779,-1.8772,-1.8762,-1.8752,-1.8741,-1.8738,-1.8732,-1.8726,-1.8725,-1.8722,-1.8719,-1.872,-1.8718,-1.8718,-1.8722,-1.8722,-1.8722,-1.8722,0,0,-1.8839,-1.8823,-1.8822,-1.8816,-1.8804,-1.8799,-1.8792,-1.8782,-1.8778,-1.8769,-1.8762,-1.875,-1.8747,-1.874,-1.8733,-1.8729,-1.8727,-1.8725,-1.8725,-1.8725,-1.8718,-1.8721,-1.872,-1.8723,-1.8723,-1.8723,-1.8719,0,-1.8838,-1.8828,-1.882,-1.8811,-1.8805,-1.8796,-1.879,-1.8782,-1.8775,-1.8767,-1.8759,-1.875,-1.8747,-1.8742,-1.8737,-1.8728,-1.8725,-1.8728,-1.8716,-1.8715,-1.8719,-1.872,-1.8723,-1.872,-1.8718,-1.8718,-1.8718,0,-1.8837,-1.8829,-1.882,-1.8808,-1.8805,-1.88,-1.879,-1.8784,-1.8773,-1.8768,-1.876,-1.8753,-1.8745,-1.8743,-1.873,-1.8732,-1.8726,-1.8721,-1.8721,-1.8719,-1.8717,-1.8718,-1.8719,-1.8718,-1.8717,-1.8717,-1.8717,0,-1.8843,-1.883,-1.8823,-1.8818,-1.8804,-1.8801,-1.8795,-1.8784,-1.8779,-1.8769,-1.8765,-1.8754,-1.8748,-1.874,-1.873,-1.8729,-1.8718,-1.8715,-1.8712,-1.8713,-1.871,-1.871,-1.871,-1.8707,-1.8707,-1.8707,-1.8707,0,-1.8843,-1.8838,-1.8825,-1.8821,-1.8814,-1.8805,-1.8798,-1.8791,-1.8782,-1.8775,-1.8767,-1.876,-1.8747,-1.8739,-1.8731,-1.8721,-1.8718,-1.8713,-1.8711,-1.8714,-1.8714,-1.871,-1.871,-1.8707,-1.8707,-1.8707,-1.8707,0,-1.8848,-1.884,-1.8832,-1.8819,-1.8816,-1.8812,-1.88,-1.8795,-1.8787,-1.8779,-1.8776,-1.8764,-1.8753,-1.8742,-1.8728,-1.8722,-1.8713,-1.871,-1.8717,-1.8715,-1.8713,-1.8713,-1.8709,-1.8708,-1.8707,-1.8707,-1.8707,0,-1.8849,-1.8845,-1.8832,-1.8828,-1.8822,-1.8815,-1.8809,-1.8799,-1.8793,-1.878,-1.8776,-1.8765,-1.8756,-1.8739,-1.8728,-1.8717,-1.8713,-1.8713,-1.8712,-1.8714,-1.8713,-1.8713,-1.8712,-1.8713,-1.8713,-1.8713,-1.8713,0,-1.8851,-1.8847,-1.884,-1.8831,-1.8824,-1.8816,-1.8808,-1.8804,-1.8792,-1.8786,-1.8775,-1.8768,-1.8754,-1.8743,-1.873,-1.8722,-1.8715,-1.8714,-1.8713,-1.8715,-1.8719,-1.8717,-1.8717,-1.8714,-1.8714,-1.8714,-1.8714,-1.8714,-1.8854,-1.885,-1.884,-1.8832,-1.8825,-1.8817,-1.8811,-1.8803,-1.8795,-1.8783,-1.8777,-1.8766,-1.8755,-1.8737,-1.8729,-1.872,-1.8718,-1.8716,-1.8716,-1.8716,-1.8716,-1.8721,-1.8718,-1.8718,-1.8718,-1.8718,-1.8717,0,-1.8855,-1.8849,-1.8841,-1.883,-1.8823,-1.8819,-1.8809,-1.8803,-1.8794,-1.8785,-1.8776,-1.8763,-1.8752,-1.874,-1.8728,-1.8723,-1.8719,-1.872,-1.872,-1.8718,-1.8719,-1.8721,-1.8723,-1.8723,-1.8723,-1.8723,-1.8723,-1.8723,-1.8855,-1.8848,-1.8842,-1.883,-1.8823,-1.8814,-1.8809,-1.8801,-1.8793,-1.878,-1.8771,-1.8764,-1.8753,-1.874,-1.8729,-1.8725,-1.8721,-1.8722,-1.8718,-1.8719,-1.8718,-1.8718,-1.872,-1.8722,-1.8722,-1.8718,-1.8718,-1.8718]}]]